Wind_Speed
10 11 11 11 12 12 12 12 12 12 13 14 14 14 15 16 17 18 19 19 20 20 21 21 22 23 24 25 26 27 27 28 28 29 29 29 29 29
11 12 13 13 13 13 14 14 14 14 15 15 15 16 16 17 17 19 20 21 22 22 23 23 24 25 26 27 28 28 28 29 29 29 30 30 31 32
13 13 14 14 14 14 15 15 15 16 16 16 17 17 18 18 19 20 21 22 23 24 25 26 26 27 27 27 28 29 29 30 31 31 32 33 33 33
14 15 16 16 16 16 17 17 17 18 18 18 19 19 20 20 21 22 23 24 25 26 27 27 28 28 28 28 30 31 31 32 32 33 34 34 35 35
16 17 17 17 17 18 18 19 19 19 20 20 21 21 22 23 24 24 25 26 27 28 29 30 30 30 31 32 32 33 34 35 35 35 35 35 36 36
18 18 19 19 19 20 20 20 21 21 22 23 23 24 25 26 26 27 28 28 29 30 31 32 32 32 33 33 33 34 35 36 36 36 37 37 38 38
19 20 20 21 21 22 22 23 23 24 24 25 26 27 27 28 29 29 30 30 31 31 32 33 33 33 34 35 35 35 36 37 38 38 39 40 40 40
21 21 22 23 23 24 25 25 26 27 27 28 28 29 29 30 30 31 31 32 32 33 33 33 34 34 35 36 37 37 38 38 39 40 40 41 42 43
23 23 24 24 25 26 27 28 28 29 30 30 30 31 31 32 32 33 33 33 34 34 34 35 35 37 38 38 39 40 41 42 42 42 42 43 44 45
24 25 26 27 27 28 29 30 30 31 31 32 32 33 33 34 35 35 36 36 37 37 37 37 38 39 40 42 43 44 44 45 45 45 46 45 46 46
27 28 29 30 31 31 32 32 33 33 34 34 35 36 37 37 37 38 38 39 39 40 41 41 42 43 43 44 46 47 48 48 49 49 50 50 50 50
30 31 31 33 34 35 35 35 36 36 37 37 38 39 39 40 40 40 41 41 42 42 43 45 45 46 46 47 48 49 50 51 51 52 53 53 54 54
32 33 34 35 36 37 38 38 39 39 40 40 41 42 42 43 43 44 44 45 45 46 47 48 49 49 50 49 49 50 52 53 54 55 55 56 57 58
35 36 37 38 39 39 40 40 41 41 42 43 44 44 45 45 45 46 47 48 49 49 50 51 52 52 52 52 52 52 53 55 56 57 57 58 59 59
37 38 38 39 40 41 41 42 43 43 44 45 46 47 48 48 48 48 49 50 50 51 52 53 54 54 54 54 55 55 55 55 56 57 58 59 59 60
38 39 40 41 42 43 44 44 45 46 47 48 48 49 50 50 51 51 51 52 52 53 54 55 55 55 55 56 56 56 57 57 57 58 59 59 60 61
40 41 43 44 45 45 46 46 47 48 49 50 50 51 51 52 52 53 54 54 54 54 55 56 57 57 57 57 57 57 58 58 58 58 59 58 58 59
43 44 45 46 47 47 47 48 49 50 51 52 52 52 53 53 53 54 55 55 55 55 56 56 57 58 57 56 57 57 57 57 57 57 57 57 55 55
45 46 46 47 48 49 49 50 50 51 52 52 53 53 53 53 54 54 55 55 56 56 57 57 57 57 56 54 53 55 56 55 55 54 53 53 52 51
47 47 48 49 50 50 50 51 51 52 52 52 53 53 53 54 54 54 55 55 56 56 55 54 54 54 54 54 52 51 52 53 52 52 51 50 50 50
48 48 49 50 50 51 51 51 52 52 52 52 52 53 53 53 53 54 55 55 55 55 53 51 51 52 52 52 50 48 48 50 50 50 49 49 48 48
49 50 51 51 51 51 51 51 51 52 52 52 52 53 53 53 54 55 55 55 54 53 52 51 51 51 51 50 49 48 46 46 46 46 46 46 46 45
50 51 51 51 51 51 51 51 52 52 52 52 52 52 53 53 53 54 54 53 52 51 50 49 49 48 48 48 48 46 45 44 43 42 42 43 43 43
Wind_Direction
333 330 328 325 322 320 317 312 308 305 303 298 293 289 283 278 275 273 270 270 270 270 271 270 268 266 264 264 261 260 259 259 258 256 256 256 256 256
331 330 328 325 321 317 313 310 308 305 303 300 295 292 287 283 279 277 275 272 271 272 272 272 272 270 268 266 265 264 262 260 260 259 258 258 258 258
323 324 324 323 321 317 315 312 309 306 303 301 297 292 289 286 283 281 280 278 276 274 274 274 273 272 270 267 265 264 263 263 261 261 260 259 259 258
317 317 317 316 315 314 312 310 308 306 304 301 298 294 291 288 287 284 283 280 278 276 275 274 273 271 270 268 266 266 265 264 263 261 260 260 260 260
313 313 313 312 312 311 310 308 306 304 302 300 298 295 293 291 288 286 283 282 280 278 275 274 273 272 272 270 269 267 266 267 265 264 262 261 260 260
310 311 311 310 309 308 307 306 305 303 301 299 296 294 292 291 289 287 284 282 281 279 277 275 274 273 272 271 269 268 267 268 267 265 264 263 262 261
308 309 309 308 308 307 306 304 303 301 300 298 296 294 293 292 290 288 286 284 283 281 280 278 276 274 272 270 269 268 268 268 267 266 266 264 263 262
307 307 307 307 307 307 306 304 302 301 299 298 297 296 294 293 291 289 288 286 285 284 282 281 279 277 274 272 270 270 270 269 269 268 266 264 263 263
306 306 306 306 306 306 305 304 302 301 300 299 298 296 295 294 292 291 289 288 286 284 282 282 281 280 279 278 275 273 272 270 269 268 268 266 264 264
305 306 306 306 305 304 303 302 301 300 299 299 298 297 295 294 292 291 289 288 287 284 282 281 280 280 280 280 279 277 275 273 271 270 269 268 267 266
305 306 305 305 304 303 302 301 300 299 298 298 297 297 296 295 294 292 290 289 288 287 285 283 281 280 280 280 280 279 277 275 273 272 271 270 269 268
305 305 305 304 303 302 301 300 299 298 298 298 297 297 296 295 295 293 292 290 289 288 287 285 284 282 280 279 279 278 277 276 275 273 272 271 270 269
304 304 304 303 302 301 300 299 298 297 298 298 298 297 297 296 295 294 293 292 291 290 289 287 286 285 283 281 279 278 278 277 277 276 275 273 271 270
304 304 303 303 303 302 302 301 300 299 298 298 298 298 297 296 295 295 294 293 292 292 291 290 288 287 285 282 281 280 280 279 277 276 275 274 273 272
303 304 304 304 304 304 303 302 301 300 300 299 299 298 298 296 294 294 293 293 293 293 292 291 290 288 286 285 284 283 281 279 278 276 275 274 273 272
303 303 303 304 304 304 303 302 301 301 301 300 300 299 298 297 295 294 293 293 293 293 293 292 291 289 288 287 285 284 282 280 278 276 275 274 273 271
302 302 302 303 304 303 303 302 302 302 302 301 301 300 299 297 296 295 294 293 293 293 292 292 291 289 289 288 287 285 284 282 281 278 276 275 273 271
303 303 303 303 303 303 303 302 302 302 302 301 301 300 300 298 297 296 296 295 294 294 293 292 291 289 288 289 288 287 285 284 282 280 278 276 273 271
304 304 304 304 304 304 303 303 303 302 302 302 301 300 300 300 299 298 297 296 295 295 294 293 291 290 289 288 287 287 287 285 283 281 279 276 273 271
304 304 304 304 304 304 304 304 303 303 303 302 302 301 301 301 300 300 299 298 297 297 296 295 293 292 291 289 288 288 287 286 284 282 280 277 274 271
305 305 305 305 305 305 305 304 304 304 304 303 303 302 302 302 302 301 301 300 299 298 296 295 293 293 292 291 289 288 287 286 286 284 281 278 275 273
305 305 306 305 305 305 305 305 305 305 305 304 304 303 303 303 302 302 302 301 300 299 298 296 294 293 292 291 290 289 288 286 286 285 283 280 278 275
306 306 306 306 306 306 306 306 306 306 306 305 305 305 305 304 304 303 302 302 301 300 299 297 296 294 293 292 291 290 289 287 285 284 283 282 280 279
Height
5859 5858 5857 5855 5854 5853 5851 5850 5850 5848 5847 5846 5845 5844 5843 5843 5842 5842 5842 5841 5841 5841 5841 5840 5840 5840 5840 5841 5841 5842 5842 5842 5843 5844 5844 5845 5846 5847
5858 5856 5855 5853 5852 5851 5849 5848 5846 5845 5844 5843 5841 5840 5839 5838 5838 5837 5837 5836 5836 5835 5835 5835 5834 5834 5834 5834 5834 5834 5834 5835 5836 5836 5837 5838 5839 5839
5856 5854 5853 5851 5850 5848 5846 5845 5843 5842 5840 5839 5837 5836 5835 5834 5833 5832 5831 5830 5830 5829 5829 5828 5827 5827 5826 5825 5825 5826 5826 5827 5827 5828 5828 5829 5830 5830
5853 5851 5850 5848 5846 5845 5843 5841 5839 5838 5836 5834 5833 5831 5830 5829 5827 5826 5825 5824 5823 5822 5821 5821 5820 5819 5818 5817 5817 5817 5817 5818 5818 5818 5819 5819 5820 5821
5850 5848 5846 5844 5842 5840 5839 5837 5835 5833 5831 5829 5828 5826 5824 5822 5821 5819 5818 5817 5815 5814 5813 5812 5811 5810 5810 5809 5808 5808 5808 5808 5808 5808 5808 5809 5810 5810
5846 5844 5842 5840 5838 5836 5834 5832 5829 5827 5825 5823 5821 5819 5817 5815 5813 5812 5810 5808 5807 5805 5804 5803 5802 5801 5800 5799 5799 5798 5798 5797 5796 5796 5796 5797 5798 5799
5841 5839 5837 5835 5833 5831 5828 5826 5823 5821 5819 5817 5814 5812 5810 5807 5805 5803 5802 5800 5798 5796 5795 5793 5792 5790 5789 5788 5788 5787 5786 5786 5785 5784 5784 5785 5786 5787
5836 5834 5832 5830 5827 5824 5822 5819 5817 5814 5811 5809 5806 5804 5801 5799 5796 5794 5792 5791 5789 5787 5785 5783 5781 5779 5778 5777 5776 5776 5775 5774 5773 5772 5772 5772 5773 5774
5831 5829 5826 5824 5821 5818 5815 5812 5809 5806 5803 5801 5798 5795 5793 5790 5787 5785 5782 5780 5778 5776 5774 5773 5771 5769 5767 5765 5764 5763 5763 5762 5761 5760 5759 5759 5759 5760
5825 5822 5820 5817 5814 5811 5808 5805 5801 5798 5795 5792 5789 5786 5783 5780 5777 5774 5772 5769 5767 5765 5762 5761 5760 5758 5756 5753 5752 5750 5749 5748 5747 5746 5746 5746 5746 5746
5818 5815 5812 5809 5806 5803 5800 5797 5793 5790 5786 5782 5779 5776 5772 5769 5766 5763 5760 5757 5755 5753 5750 5748 5746 5745 5743 5740 5738 5735 5734 5733 5731 5730 5730 5730 5730 5730
5811 5808 5804 5801 5797 5793 5790 5787 5783 5780 5776 5772 5769 5765 5761 5758 5754 5750 5747 5744 5742 5739 5736 5733 5731 5729 5728 5727 5723 5720 5718 5716 5715 5713 5713 5712 5712 5712
5803 5799 5796 5792 5788 5784 5780 5776 5772 5768 5765 5761 5757 5753 5749 5745 5741 5737 5733 5730 5727 5724 5721 5718 5715 5712 5710 5709 5707 5704 5700 5698 5696 5695 5694 5693 5693 5692
5793 5790 5786 5782 5777 5773 5769 5765 5760 5756 5753 5749 5745 5741 5736 5732 5728 5724 5720 5716 5712 5708 5704 5700 5697 5694 5692 5690 5689 5687 5683 5680 5677 5676 5674 5673 5672 5671
5783 5779 5775 5771 5766 5762 5757 5753 5748 5744 5740 5736 5732 5727 5723 5718 5714 5710 5706 5701 5697 5692 5688 5683 5679 5676 5673 5670 5669 5666 5664 5661 5657 5655 5654 5652 5651 5650
5773 5769 5765 5760 5756 5751 5746 5741 5736 5731 5727 5722 5718 5713 5708 5703 5699 5694 5690 5686 5682 5678 5672 5666 5661 5658 5655 5652 5648 5645 5642 5640 5637 5634 5632 5632 5630 5628
5763 5759 5754 5749 5744 5739 5734 5729 5723 5718 5713 5708 5703 5698 5693 5688 5683 5678 5673 5669 5665 5660 5656 5650 5644 5639 5635 5632 5629 5625 5621 5618 5615 5612 5611 5610 5609 5607
5751 5747 5742 5737 5732 5726 5721 5716 5710 5704 5699 5693 5688 5682 5677 5672 5667 5662 5656 5651 5647 5642 5637 5632 5626 5621 5618 5614 5609 5604 5601 5597 5595 5592 5589 5589 5589 5588
5739 5734 5729 5724 5718 5713 5707 5702 5696 5690 5684 5678 5673 5667 5661 5656 5650 5645 5639 5634 5629 5624 5618 5612 5606 5601 5598 5596 5593 5585 5580 5577 5574 5572 5570 5568 5569 5569
5727 5721 5716 5711 5705 5699 5693 5688 5682 5676 5669 5663 5657 5651 5645 5640 5634 5628 5622 5616 5611 5606 5600 5594 5588 5582 5578 5575 5574 5571 5563 5557 5555 5553 5551 5550 5550 5550
5714 5708 5703 5697 5691 5685 5679 5673 5667 5661 5655 5648 5642 5636 5630 5624 5618 5612 5606 5599 5593 5587 5583 5578 5572 5566 5560 5556 5554 5553 5548 5542 5537 5534 5533 5532 5532 5532
5701 5695 5689 5683 5677 5671 5665 5658 5652 5646 5640 5633 5627 5621 5614 5608 5602 5596 5589 5583 5576 5571 5565 5561 5556 5550 5545 5540 5537 5534 5532 5528 5523 5519 5516 5514 5513 5514
5688 5682 5676 5669 5663 5657 5650 5644 5638 5632 5625 5618 5612 5606 5599 5592 5586 5579 5573 5566 5560 5555 5549 5545 5540 5535 5530 5525 5521 5518 5516 5513 5510 5507 5504 5501 5499 5498